| time (UTC) | temp F | wind direction | speed MPH | gust MPH | rain 1hr in | rain 24hr in | rain mn in | humidity % | barometer mb |
| 20260510093943 | 36 | 288 | 1.0 | 3.0 | 0.00 | 0.12 | 0.00 | 83 | 972.9 |
| 20260510093813 | 36 | 288 | 1.0 | 3.0 | 0.00 | 0.12 | 0.00 | 83 | 972.9 |
| 20260510092441 | 37 | 295 | 2.0 | 4.0 | 0.00 | 0.12 | 0.00 | 81 | 972.6 |
| 20260510092311 | 37 | 295 | 2.0 | 4.0 | 0.00 | 0.12 | 0.00 | 81 | 972.6 |
| 20260510090938 | 37 | 291 | 1.0 | 2.0 | 0.00 | 0.12 | 0.00 | 80 | 972.3 |
| 20260510090808 | 37 | 291 | 1.0 | 2.0 | 0.00 | 0.12 | 0.00 | 80 | 972.3 |
| 20260510085436 | 38 | 296 | 2.0 | 3.0 | 0.00 | 0.12 | 0.00 | 78 | 971.9 |
| 20260510085344 | 38 | 296 | 2.0 | 3.0 | 0.00 | 0.12 | 0.00 | 78 | 971.9 |
| 20260510085306 | 38 | 296 | 2.0 | 3.0 | 0.00 | 0.12 | 0.00 | 78 | 971.9 |
| 20260510083933 | 38 | 297 | 2.0 | 4.0 | 0.00 | 0.12 | 0.00 | 78 | 971.8 |
| 20260510083803 | 38 | 297 | 2.0 | 4.0 | 0.00 | 0.12 | 0.00 | 78 | 971.8 |
| 20260510082431 | 38 | 297 | 1.0 | 3.0 | 0.00 | 0.12 | 0.00 | 77 | 971.7 |
| 20260510082300 | 38 | 297 | 1.0 | 3.0 | 0.00 | 0.12 | 0.00 | 77 | 971.7 |
| 20260510080928 | 35 | 0 | 0.0 | 0.0 | 0.00 | 0.12 | 0.00 | 87 | 971.5 |
| 20260510080758 | 35 | 0 | 0.0 | 0.0 | 0.00 | 0.12 | 0.00 | 87 | 971.5 |
| 20260510075426 | 38 | 0 | 0.0 | 0.0 | 0.00 | 0.12 | 0.00 | 83 | 971.8 |
| 20260510075255 | 38 | 0 | 0.0 | 0.0 | 0.00 | 0.12 | 0.00 | 83 | 971.8 |
| 20260510073923 | 38 | 298 | 2.0 | 2.0 | 0.00 | 0.12 | 0.00 | 75 | 971.4 |
| 20260510073753 | 38 | 298 | 2.0 | 2.0 | 0.00 | 0.12 | 0.00 | 75 | 971.4 |
| 20260510072420 | 39 | 298 | 2.0 | 3.0 | 0.00 | 0.12 | 0.00 | 74 | 971.3 |
| 20260510072250 | 39 | 298 | 2.0 | 3.0 | 0.00 | 0.12 | 0.00 | 74 | 971.3 |
| 20260510070918 | 39 | 302 | 3.0 | 6.0 | 0.00 | 0.12 | 0.00 | 74 | 971.1 |
| 20260510070748 | 39 | 302 | 3.0 | 6.0 | 0.00 | 0.12 | 0.00 | 74 | 971.1 |
| 20260510065415 | 40 | 306 | 3.0 | 7.0 | 0.00 | 0.12 | 0.00 | 72 | 971.1 |
| 20260510065245 | 40 | 306 | 3.0 | 7.0 | 0.00 | 0.12 | 0.00 | 72 | 971.1 |
| 20260510063913 | 40 | 300 | 4.0 | 8.0 | 0.00 | 0.12 | 0.00 | 72 | 971.2 |
| 20260510063743 | 40 | 300 | 4.0 | 8.0 | 0.00 | 0.12 | 0.00 | 72 | 971.2 |
| 20260510062410 | 41 | 301 | 5.0 | 8.0 | 0.00 | 0.12 | 0.00 | 71 | 971.2 |
| 20260510062240 | 41 | 301 | 5.0 | 8.0 | 0.00 | 0.12 | 0.00 | 71 | 971.2 |
| 20260510060908 | 42 | 303 | 6.0 | 11.0 | 0.00 | 0.12 | 0.00 | 69 | 971.1 |
| 20260510060737 | 42 | 303 | 6.0 | 11.0 | 0.00 | 0.12 | 0.00 | 69 | 971.1 |
| 20260510055405 | 42 | 301 | 7.0 | 11.0 | 0.00 | 0.12 | 0.00 | 67 | 970.9 |
| 20260510055235 | 42 | 301 | 7.0 | 11.0 | 0.00 | 0.12 | 0.00 | 67 | 970.9 |
| 20260510053903 | 43 | 302 | 7.0 | 10.0 | 0.00 | 0.12 | 0.00 | 68 | 970.5 |
| 20260510053732 | 43 | 302 | 7.0 | 10.0 | 0.00 | 0.12 | 0.00 | 68 | 970.5 |
| 20260510052400 | 44 | 305 | 6.0 | 10.0 | 0.00 | 0.12 | 0.00 | 70 | 970.5 |
| 20260510052230 | 44 | 305 | 6.0 | 10.0 | 0.00 | 0.12 | 0.00 | 70 | 970.5 |
| 20260510050858 | 44 | 304 | 5.0 | 7.0 | 0.00 | 0.12 | 0.00 | 68 | 970.4 |
| 20260510050727 | 44 | 304 | 5.0 | 7.0 | 0.00 | 0.12 | 0.00 | 68 | 970.4 |
| 20260510045355 | 44 | 301 | 3.0 | 6.0 | 0.00 | 0.12 | 0.00 | 71 | 970.1 |
| 20260510045225 | 44 | 301 | 3.0 | 6.0 | 0.00 | 0.12 | 0.00 | 71 | 970.1 |
| 20260510043852 | 44 | 311 | 0.0 | 1.0 | 0.00 | 0.12 | 0.00 | 76 | 969.7 |
| 20260510043722 | 44 | 311 | 0.0 | 1.0 | 0.00 | 0.12 | 0.00 | 76 | 969.7 |
| 20260510042350 | 44 | 290 | 0.0 | 2.0 | 0.00 | 0.12 | 0.00 | 79 | 969.8 |
| 20260510042220 | 44 | 290 | 0.0 | 2.0 | 0.00 | 0.12 | 0.00 | 79 | 969.8 |
| 20260510040847 | 45 | 307 | 1.0 | 2.0 | 0.00 | 0.12 | 0.00 | 78 | 969.7 |
| 20260510040717 | 45 | 307 | 1.0 | 2.0 | 0.00 | 0.12 | 0.00 | 78 | 969.7 |
| 20260510035345 | 46 | 333 | 1.0 | 2.0 | 0.00 | 0.12 | 0.12 | 75 | 969.5 |
| 20260510035214 | 46 | 333 | 1.0 | 2.0 | 0.00 | 0.12 | 0.12 | 75 | 969.5 |
| 20260510033843 | 47 | 308 | 2.0 | 4.0 | 0.00 | 0.12 | 0.12 | 67 | 969.6 |
| 20260510033712 | 47 | 308 | 2.0 | 4.0 | 0.00 | 0.12 | 0.12 | 67 | 969.6 |
| 20260510032340 | 46 | 12 | 0.0 | 3.0 | 0.00 | 0.12 | 0.12 | 72 | 968.9 |
| 20260510032209 | 46 | 12 | 0.0 | 3.0 | 0.00 | 0.12 | 0.12 | 72 | 968.9 |
| 20260510030837 | 47 | 10 | 0.0 | 2.0 | 0.00 | 0.12 | 0.12 | 70 | 968.9 |
| 20260510030707 | 47 | 10 | 0.0 | 2.0 | 0.00 | 0.12 | 0.12 | 70 | 968.9 |
| 20260510025435 | 47 | 0 | 0.0 | 0.0 | 0.00 | 0.12 | 0.12 | 77 | 968.6 |
| 20260510025306 | 47 | 0 | 0.0 | 0.0 | 0.00 | 0.12 | 0.12 | 77 | 968.6 |
| 20260510023932 | 47 | 344 | 1.0 | 3.0 | 0.00 | 0.12 | 0.12 | 76 | 968.0 |
| 20260510023802 | 47 | 344 | 1.0 | 3.0 | 0.00 | 0.12 | 0.12 | 76 | 968.0 |
| 20260510022430 | 48 | 330 | 1.0 | 4.0 | 0.00 | 0.12 | 0.12 | 75 | 967.7 |
| 20260510022259 | 48 | 330 | 1.0 | 4.0 | 0.00 | 0.12 | 0.12 | 75 | 967.7 |
| 20260510020927 | 49 | 315 | 2.0 | 6.0 | 0.00 | 0.12 | 0.12 | 75 | 967.7 |
| 20260510020757 | 49 | 315 | 2.0 | 6.0 | 0.00 | 0.12 | 0.12 | 75 | 967.7 |
| 20260510015424 | 50 | 311 | 3.0 | 7.0 | 0.00 | 0.12 | 0.12 | 74 | 967.2 |
| 20260510015254 | 50 | 311 | 3.0 | 7.0 | 0.00 | 0.12 | 0.12 | 74 | 967.2 |
| 20260510013922 | 51 | 306 | 5.0 | 10.0 | 0.00 | 0.12 | 0.12 | 71 | 967.3 |
| 20260510013752 | 51 | 306 | 5.0 | 10.0 | 0.00 | 0.12 | 0.12 | 71 | 967.3 |
| 20260510012419 | 53 | 299 | 5.0 | 8.0 | 0.00 | 0.12 | 0.12 | 68 | 966.8 |
| 20260510012249 | 53 | 299 | 5.0 | 8.0 | 0.00 | 0.12 | 0.12 | 68 | 966.8 |
| 20260510010917 | 54 | 304 | 4.0 | 9.0 | 0.00 | 0.12 | 0.12 | 73 | 966.7 |
| 20260510010747 | 54 | 304 | 4.0 | 9.0 | 0.00 | 0.12 | 0.12 | 73 | 966.7 |
| 20260510005414 | 52 | 0 | 0.0 | 0.0 | 0.00 | 0.12 | 0.12 | 95 | 966.3 |
| 20260510005244 | 52 | 0 | 0.0 | 0.0 | 0.00 | 0.12 | 0.12 | 95 | 966.3 |
| 20260510003912 | 53 | 0 | 0.0 | 0.0 | 0.00 | 0.12 | 0.12 | 94 | 965.8 |
| 20260510003742 | 53 | 0 | 0.0 | 0.0 | 0.00 | 0.12 | 0.12 | 94 | 965.8 |
| 20260510002409 | 54 | 0 | 0.0 | 0.0 | 0.00 | 0.12 | 0.12 | 92 | 965.5 |
| 20260510002239 | 54 | 0 | 0.0 | 0.0 | 0.00 | 0.12 | 0.12 | 92 | 965.5 |
| 20260510000907 | 54 | 0 | 0.0 | 0.0 | 0.00 | 0.12 | 0.12 | 91 | 965.4 |
| 20260510000737 | 54 | 0 | 0.0 | 0.0 | 0.00 | 0.12 | 0.12 | 91 | 965.4 |
| 20260509235404 | 54 | 0 | 0.0 | 0.0 | 0.00 | 0.12 | 0.12 | 91 | 965.2 |
| 20260509235234 | 54 | 0 | 0.0 | 0.0 | 0.00 | 0.12 | 0.12 | 91 | 965.2 |
| 20260509233902 | 55 | 0 | 0.0 | 0.0 | 0.00 | 0.12 | 0.12 | 89 | 965.0 |
| 20260509233731 | 55 | 0 | 0.0 | 0.0 | 0.00 | 0.12 | 0.12 | 89 | 965.0 |
| 20260509232359 | 55 | 0 | 0.0 | 0.0 | 0.00 | 0.12 | 0.12 | 88 | 964.7 |
| 20260509232229 | 55 | 0 | 0.0 | 0.0 | 0.00 | 0.12 | 0.12 | 88 | 964.7 |
| 20260509230857 | 55 | 0 | 0.0 | 0.0 | 0.00 | 0.12 | 0.12 | 86 | 964.4 |
| 20260509230726 | 55 | 0 | 0.0 | 0.0 | 0.00 | 0.12 | 0.12 | 86 | 964.4 |
| 20260509225354 | 55 | 289 | 1.0 | 3.0 | 0.00 | 0.12 | 0.12 | 84 | 964.3 |
| 20260509225224 | 55 | 289 | 1.0 | 3.0 | 0.00 | 0.12 | 0.12 | 84 | 964.3 |
| 20260509223823 | 55 | 161 | 0.0 | 3.0 | 0.00 | 0.12 | 0.12 | 85 | 964.0 |
| 20260509223721 | 55 | 161 | 0.0 | 3.0 | 0.00 | 0.12 | 0.12 | 85 | 964.0 |
| 20260509222319 | 54 | 133 | 0.0 | 2.0 | 0.00 | 0.12 | 0.12 | 86 | 963.7 |
| 20260509222219 | 54 | 133 | 0.0 | 2.0 | 0.00 | 0.12 | 0.12 | 86 | 963.7 |
| 20260509220816 | 54 | 162 | 1.0 | 2.0 | 0.00 | 0.12 | 0.12 | 86 | 963.7 |
| 20260509220716 | 54 | 162 | 1.0 | 2.0 | 0.00 | 0.12 | 0.12 | 86 | 963.7 |
| 20260509215244 | 54 | 184 | 1.0 | 6.0 | 0.00 | 0.12 | 0.12 | 86 | 964.1 |
| 20260509215214 | 54 | 184 | 1.0 | 6.0 | 0.00 | 0.12 | 0.12 | 86 | 964.1 |
| 20260509213711 | 53 | 112 | 1.0 | 4.0 | 0.01 | 0.12 | 0.12 | 91 | 963.8 |
| 20260509212241 | 53 | 58 | 1.0 | 4.0 | 0.12 | 0.12 | 0.12 | 91 | 964.2 |
| 20260509212208 | 53 | 58 | 1.0 | 4.0 | 0.12 | 0.12 | 0.12 | 91 | 964.2 |
| 20260509210738 | 53 | 138 | 2.0 | 8.0 | 0.12 | 0.12 | 0.12 | 89 | 964.0 |
| 20260509210706 | 53 | 138 | 2.0 | 8.0 | 0.12 | 0.12 | 0.12 | 89 | 964.0 |
| 20260509205235 | 53 | 164 | 2.0 | 9.0 | 0.12 | 0.12 | 0.12 | 94 | 963.8 |
| 20260509205203 | 53 | 164 | 2.0 | 9.0 | 0.12 | 0.12 | 0.12 | 94 | 963.8 |
| 20260509203733 | 54 | 151 | 2.0 | 8.0 | 0.11 | 0.11 | 0.11 | 94 | 963.9 |
| 20260509203701 | 54 | 151 | 2.0 | 8.0 | 0.11 | 0.11 | 0.11 | 94 | 963.9 |
| 20260509202230 | 56 | 155 | 3.0 | 13.0 | 0.00 | 0.00 | 0.00 | 85 | 963.9 |
| 20260509202158 | 56 | 155 | 3.0 | 13.0 | 0.00 | 0.00 | 0.00 | 85 | 963.9 |
| 20260509200728 | 57 | 182 | 4.0 | 11.0 | 0.00 | 0.00 | 0.00 | 78 | 963.2 |
| 20260509200655 | 57 | 182 | 4.0 | 11.0 | 0.00 | 0.00 | 0.00 | 78 | 963.2 |
| 20260509195225 | 57 | 141 | 3.0 | 10.0 | 0.00 | 0.00 | 0.00 | 77 | 963.3 |
| 20260509195153 | 57 | 141 | 3.0 | 10.0 | 0.00 | 0.00 | 0.00 | 77 | 963.3 |
| 20260509193723 | 58 | 178 | 4.0 | 16.0 | 0.00 | 0.00 | 0.00 | 77 | 963.4 |
| 20260509193650 | 58 | 178 | 4.0 | 16.0 | 0.00 | 0.00 | 0.00 | 77 | 963.4 |
| 20260509192220 | 58 | 148 | 3.0 | 16.0 | 0.00 | 0.00 | 0.00 | 78 | 963.4 |
| 20260509192148 | 58 | 148 | 3.0 | 16.0 | 0.00 | 0.00 | 0.00 | 78 | 963.4 |
| 20260509190718 | 57 | 148 | 3.0 | 9.0 | 0.00 | 0.00 | 0.00 | 83 | 963.8 |
| 20260509190645 | 57 | 148 | 3.0 | 9.0 | 0.00 | 0.00 | 0.00 | 83 | 963.8 |
| 20260509185315 | 58 | 136 | 4.0 | 11.0 | 0.00 | 0.00 | 0.00 | 81 | 963.8 |
| 20260509185243 | 58 | 136 | 4.0 | 11.0 | 0.00 | 0.00 | 0.00 | 81 | 963.8 |
| 20260509183813 | 57 | 127 | 4.0 | 13.0 | 0.00 | 0.00 | 0.00 | 83 | 963.7 |
| 20260509183740 | 57 | 127 | 4.0 | 13.0 | 0.00 | 0.00 | 0.00 | 83 | 963.7 |
| 20260509182310 | 57 | 139 | 4.0 | 13.0 | 0.00 | 0.00 | 0.00 | 82 | 964.4 |
| 20260509182238 | 57 | 139 | 4.0 | 13.0 | 0.00 | 0.00 | 0.00 | 82 | 964.4 |
| 20260509180808 | 58 | 143 | 4.0 | 10.0 | 0.00 | 0.00 | 0.00 | 79 | 964.1 |
| 20260509180735 | 58 | 143 | 4.0 | 10.0 | 0.00 | 0.00 | 0.00 | 79 | 964.1 |
| 20260509175233 | 60 | 136 | 3.0 | 9.0 | 0.00 | 0.00 | 0.00 | 72 | 964.2 |
| 20260509173802 | 60 | 141 | 6.0 | 17.0 | 0.00 | 0.00 | 0.00 | 72 | 964.2 |
| 20260509173730 | 60 | 141 | 6.0 | 17.0 | 0.00 | 0.00 | 0.00 | 72 | 964.2 |
| 20260509172300 | 60 | 135 | 4.0 | 10.0 | 0.00 | 0.00 | 0.00 | 73 | 964.4 |
| 20260509172228 | 60 | 135 | 4.0 | 10.0 | 0.00 | 0.00 | 0.00 | 73 | 964.4 |
| 20260509170758 | 62 | 140 | 4.0 | 13.0 | 0.00 | 0.00 | 0.00 | 69 | 964.4 |
| 20260509170725 | 62 | 140 | 4.0 | 13.0 | 0.00 | 0.00 | 0.00 | 69 | 964.4 |
| 20260509165255 | 60 | 145 | 4.0 | 9.0 | 0.00 | 0.00 | 0.00 | 74 | 964.5 |
| 20260509165222 | 60 | 145 | 4.0 | 9.0 | 0.00 | 0.00 | 0.00 | 74 | 964.5 |
| 20260509163752 | 59 | 142 | 4.0 | 9.0 | 0.00 | 0.00 | 0.00 | 74 | 964.8 |
| 20260509163720 | 59 | 142 | 4.0 | 9.0 | 0.00 | 0.00 | 0.00 | 74 | 964.8 |
| 20260509162249 | 59 | 132 | 2.0 | 9.0 | 0.00 | 0.00 | 0.00 | 75 | 965.5 |
| 20260509162217 | 59 | 132 | 2.0 | 9.0 | 0.00 | 0.00 | 0.00 | 75 | 965.5 |
| 20260509160715 | 59 | 153 | 2.0 | 10.0 | 0.00 | 0.00 | 0.00 | 74 | 966.2 |
| 20260509155245 | 59 | 150 | 3.0 | 9.0 | 0.00 | 0.00 | 0.00 | 77 | 966.2 |
| 20260509155212 | 59 | 150 | 3.0 | 9.0 | 0.00 | 0.00 | 0.00 | 77 | 966.2 |
| 20260509153742 | 59 | 152 | 3.0 | 9.0 | 0.00 | 0.00 | 0.00 | 75 | 965.9 |
| 20260509153710 | 59 | 152 | 3.0 | 9.0 | 0.00 | 0.00 | 0.00 | 75 | 965.9 |
| 20260509152240 | 58 | 137 | 4.0 | 10.0 | 0.00 | 0.00 | 0.00 | 78 | 966.1 |
| 20260509152207 | 58 | 137 | 4.0 | 10.0 | 0.00 | 0.00 | 0.00 | 78 | 966.1 |
| 20260509150705 | 57 | 179 | 3.0 | 9.0 | 0.00 | 0.00 | 0.00 | 81 | 966.3 |
| 20260509145234 | 56 | 139 | 3.0 | 9.0 | 0.00 | 0.00 | 0.00 | 81 | 965.9 |
| 20260509145202 | 56 | 139 | 3.0 | 9.0 | 0.00 | 0.00 | 0.00 | 81 | 965.9 |
| 20260509143732 | 57 | 161 | 3.0 | 10.0 | 0.00 | 0.00 | 0.00 | 80 | 966.2 |
| 20260509143659 | 57 | 161 | 3.0 | 10.0 | 0.00 | 0.00 | 0.00 | 80 | 966.2 |
| 20260509142157 | 55 | 163 | 2.0 | 8.0 | 0.00 | 0.00 | 0.00 | 84 | 966.2 |
| 20260509140727 | 55 | 154 | 2.0 | 8.0 | 0.00 | 0.00 | 0.00 | 83 | 966.2 |
| 20260509140654 | 55 | 154 | 2.0 | 8.0 | 0.00 | 0.00 | 0.00 | 83 | 966.2 |
| 20260509135224 | 54 | 145 | 2.0 | 9.0 | 0.00 | 0.00 | 0.00 | 86 | 966.4 |
| 20260509135152 | 54 | 145 | 2.0 | 9.0 | 0.00 | 0.00 | 0.00 | 86 | 966.4 |
| 20260509133721 | 53 | 149 | 3.0 | 9.0 | 0.00 | 0.00 | 0.00 | 88 | 966.4 |
| 20260509133649 | 53 | 149 | 3.0 | 9.0 | 0.00 | 0.00 | 0.00 | 88 | 966.4 |
| 20260509132219 | 53 | 163 | 2.0 | 9.0 | 0.00 | 0.00 | 0.00 | 90 | 966.6 |
| 20260509132147 | 53 | 163 | 2.0 | 9.0 | 0.00 | 0.00 | 0.00 | 90 | 966.6 |
| 20260509130716 | 52 | 148 | 2.0 | 8.0 | 0.00 | 0.00 | 0.00 | 90 | 966.6 |
| 20260509130644 | 52 | 148 | 2.0 | 8.0 | 0.00 | 0.00 | 0.00 | 90 | 966.6 |
| 20260509125214 | 51 | 178 | 2.0 | 7.0 | 0.00 | 0.00 | 0.00 | 92 | 966.6 |
| 20260509125142 | 51 | 178 | 2.0 | 7.0 | 0.00 | 0.00 | 0.00 | 92 | 966.6 |
| 20260509123712 | 51 | 180 | 2.0 | 8.0 | 0.00 | 0.00 | 0.00 | 94 | 966.9 |
| 20260509123639 | 51 | 180 | 2.0 | 8.0 | 0.00 | 0.00 | 0.00 | 94 | 966.9 |
| 20260509122137 | 50 | 161 | 1.0 | 8.0 | 0.00 | 0.00 | 0.00 | 95 | 966.8 |
| 20260509120634 | 50 | 151 | 1.0 | 9.0 | 0.00 | 0.00 | 0.00 | 95 | 967.1 |
| 20260509115232 | 50 | 129 | 1.0 | 4.0 | 0.00 | 0.00 | 0.00 | 97 | 966.9 |
| 20260509113801 | 49 | 147 | 1.0 | 6.0 | 0.00 | 0.00 | 0.00 | 99 | 967.0 |
| 20260509113729 | 49 | 147 | 1.0 | 6.0 | 0.00 | 0.00 | 0.00 | 99 | 967.0 |
| 20260509112258 | 48 | 137 | 1.0 | 7.0 | 0.00 | 0.00 | 0.00 | 99 | 966.9 |
| 20260509112226 | 48 | 137 | 1.0 | 7.0 | 0.00 | 0.00 | 0.00 | 99 | 966.9 |
| 20260509110756 | 48 | 153 | 1.0 | 6.0 | 0.00 | 0.00 | 0.00 | 99 | 966.9 |
| 20260509110724 | 48 | 153 | 1.0 | 6.0 | 0.00 | 0.00 | 0.00 | 99 | 966.9 |
| 20260509105254 | 48 | 136 | 1.0 | 3.0 | 0.00 | 0.00 | 0.00 | 99 | 966.7 |
| 20260509105221 | 48 | 136 | 1.0 | 3.0 | 0.00 | 0.00 | 0.00 | 99 | 966.7 |
| 20260509103751 | 48 | 151 | 1.0 | 3.0 | 0.00 | 0.00 | 0.00 | 99 | 966.9 |
| 20260509103719 | 48 | 151 | 1.0 | 3.0 | 0.00 | 0.00 | 0.00 | 99 | 966.9 |
| 20260509102216 | 48 | 141 | 1.0 | 3.0 | 0.00 | 0.00 | 0.00 | 99 | 967.1 |
| 20260509100746 | 48 | 137 | 1.0 | 4.0 | 0.00 | 0.00 | 0.00 | 99 | 966.9 |
| 20260509100714 | 48 | 137 | 1.0 | 4.0 | 0.00 | 0.00 | 0.00 | 99 | 966.9 |
| 20260509095243 | 48 | 151 | 1.0 | 3.0 | 0.00 | 0.00 | 0.00 | 99 | 967.2 |
| 20260509095211 | 48 | 151 | 1.0 | 3.0 | 0.00 | 0.00 | 0.00 | 99 | 967.2 |